Location: Ferintosh
(52.7647°N, 112.9692°W)
Time: 03:20:45
(UTC+00:00)

S-56A Canister/Altair - Pass Details

Date: 28 May 2024
Orbit: 637 x 2488 km, 38.9° (Epoch: 23 June)

Event Time Altitude Azimuth Distance (km) Brightness Sun altitude
Rises 11:35:20 0° 219° (SW) 6,150 11.5 1.4°
Reaches altitude 10° 11:40:08 10° 210° (SSW) 5,081 11.2 2.0°
Maximum altitude 11:51:41 31° 157° (SSE) 3,291 10.7 3.5°
Drops below altitude 10° 12:01:00 10° 102° (ESE) 4,083 12.1 4.7°
Sets 12:04:20 0° 92° (E) 4,813 12.7 5.1°
